This is the latest recevied weather packets stored in our database for station/object W1QED. If no packets are shown the sender has not sent any weather packets the latest 1 day(s).
| Time | Temp. | Humidity | Pressure | Rain* | Wind** | Luminosity | Snow |
|---|---|---|---|---|---|---|---|
| 1778045722 | 17.78° C | 50% | 1008.5 hPa | 0 mm | 2.24 m/s, 219° | - | - |
| 1778045420 | 18.33° C | 50% | 1008.7 hPa | 0 mm | 1.79 m/s, 207° | - | - |
| 1778045118 | 18.33° C | 49% | 1008.7 hPa | 0 mm | 1.79 m/s, 226° | - | - |
| 1778044817 | 18.33° C | 49% | 1008.7 hPa | 0 mm | 2.68 m/s, 209° | - | - |
| 1778044517 | 18.33° C | 49% | 1008.6 hPa | 0 mm | 2.24 m/s, 206° | - | - |
| 1778044215 | 18.33° C | 49% | 1008.7 hPa | 0 mm | 2.24 m/s, 190° | - | - |
| 1778043912 | 18.33° C | 49% | 1008.7 hPa | 0 mm | 2.24 m/s, 237° | - | - |
| 1778043612 | 18.33° C | 49% | 1008.8 hPa | 0 mm | 2.68 m/s, 195° | - | - |
| 1778043310 | 17.78° C | 49% | 1008.8 hPa | 0 mm | 2.24 m/s, 226° | - | - |
| 1778043010 | 17.78° C | 49% | 1008.9 hPa | 0 mm | 2.24 m/s, 246° | - | - |
| 1778042711 | 17.78° C | 49% | 1008.9 hPa | 0 mm | 2.24 m/s, 205° | - | - |
| 1778042408 | 17.78° C | 49% | 1009 hPa | 0 mm | 2.24 m/s, 261° | - | - |
| 1778042107 | 17.78° C | 49% | 1008.9 hPa | 0 mm | 2.24 m/s, 203° | - | - |
| 1778041805 | 18.33° C | 48% | 1009.1 hPa | 0 mm | 2.24 m/s, 243° | - | - |
| 1778041506 | 18.33° C | 48% | 1009.2 hPa | 0 mm | 3.13 m/s, 253° | - | - |
| 1778041204 | 18.33° C | 48% | 1009.1 hPa | 0 mm | 4.02 m/s, 214° | - | - |
| 1778040902 | 18.33° C | 48% | 1009 hPa | 0 mm | 2.68 m/s, 249° | - | - |
| 1778040601 | 18.33° C | 48% | 1008.9 hPa | 0 mm | 2.68 m/s, 200° | - | - |
| 1778040301 | 18.33° C | 48% | 1009 hPa | 0 mm | 3.13 m/s, 201° | - | - |
| 1778040070 | 18.33° C | 48% | 1009 hPa | 0 mm | 3.58 m/s, 212° | - | - |
| 1778039760 | 17.78° C | 48% | 1008.9 hPa | 0 mm | 2.68 m/s, 233° | - | - |
| 1778039458 | 17.78° C | 48% | 1009 hPa | 0 mm | 3.58 m/s, 212° | - | - |
| 1778039157 | 17.78° C | 49% | 1009.1 hPa | 0 mm | 3.13 m/s, 235° | - | - |
| 1778038855 | 17.78° C | 49% | 1009.1 hPa | 0 mm | 2.68 m/s, 187° | - | - |
| 1778038555 | 17.78° C | 49% | 1009.1 hPa | 0 mm | 1.79 m/s, 242° | - | - |
* Rain latest hour (hover to see other rain measurements)
** Current wind speed in m/s (hover to see current wind gust speed)